Regional Weather Roundup
Issued by NWS San Diego, CA

Home | Current Version | Previous Version | Text Only | Print | Product List | Glossary On
Versions: 1 2 3 4 5 6 7 8 9 10 11 12 13 14 15 16 17 18 19 20 21 22 23 24 25 26 27 28 29 30 31 32 33 34 35 36 37 38 39 40 41 42 43 44 45 46 47 48 49 50
000
ASUS46 KSGX 251210
RWRSGX

SAN DIEGO HOURLY WEATHER ROUNDUP
NATIONAL WEATHER SERVICE SAN DIEGO CA
400 AM PST THU DEC 25 2014

NOTE: "FAIR" INDICATES FEW OR NO CLOUDS BELOW 12,000 FEET WITH NO
SIGNIFICANT WEATHER AND/OR OBSTRUCTIONS TO VISIBILITY.

CAZ042-043-060-061-PZZ750-775-251300-

GREATER SAN DIEGO AREA

CITY           SKY/WX    TMP DP  RH WIND       PRES   REMARKS
LINDBERGH FLD  MOCLDY    61  53  75 W8        29.83S
POINT LOMA       N/A     57  51  82 W16         N/A
NATIONAL CITY    N/A     60  56  85 W5        29.82F
CHULA VISTA      N/A     59  57  92 W3        29.75F
IMPERIAL BEACH MOCLDY    60  56  86 W12       29.82F
BROWN FIELD    LGT RAIN  58  55  90 W6        29.82F
MIRAMAR MCAS   MOCLDY    60  53  77 W12       29.81F
MONTGOMERY FLD MOCLDY    59  54  83 W10       29.81F

$$

NORTH SAN DIEGO COUNTY

CITY           SKY/WX    TMP DP  RH WIND       PRES   REMARKS
CAMP PENDLETON CLOUDY    55  50  83 CALM      29.79S
OCEANSIDE AP   CLOUDY    60  54  80 W8        29.78F
OCEANSIDE HBR    N/A     61  55  80 W10       29.82S
VISTA            N/A     58  53  85 SE1       29.77F
CARLSBAD       CLOUDY    58  54  86 CALM      29.79S
DEL MAR          N/A     60  56  87 W3        29.82F
LA JOLLA SCRIP   N/A     59  56  88 CALM      29.79S
FALLBROOK        N/A     56  56 100 CALM      29.80F
ESCONDIDO        N/A     56  52  86 SE5       29.81F
SAN MARCOS       N/A     57  52  85 CALM      29.77F
POWAY            N/A     56  52  86 CALM      29.83F

$$

EAST SAN DIEGO COUNTY

CITY           SKY/WX    TMP DP  RH WIND       PRES   REMARKS
RAMONA         MOCLDY    53  51  93 S6        29.80F
SANTEE LAKES     N/A     56  52  88 CALM      29.83F
LA MESA          N/A     58  54  85 CALM      29.76F
JAMUL            N/A     56  53  89 CALM      29.81F
DESCANSO N       N/A     48  44  87 SW7       29.69F
MT. LAGUNA OBS   N/A     37  37 100 W23       29.42F WCI  26
CAMPO            N/A     50  46  86 SW12      29.79F

$$

ORANGE COUNTY AND THE LOS ANGELES BASIN

CITY           SKY/WX    TMP DP  RH WIND       PRES   REMARKS
JOHN WAYNE AP  CLOUDY    61  53  75 CALM      29.78R
LAGUNA BEACH     N/A     59  56  88 CALM      29.74F
LAKE FOREST FR   N/A     55  50  83 CALM      29.68S
SANTA ANA        N/A     56  52  88 CALM      29.74R
HUNTINGTON BCH   N/A     56  53  88 NW1       29.80R
LOS ALAMITOS   MOCLDY    55  50  82 N8        29.78S
FULLERTON      MOCLDY    57  53  86 W5        29.77R
LONG BEACH     PTCLDY    56  37  49 NW15      29.78S
L.A. AP        PTCLDY    56  33  42 N23G31    29.79S
L.A. DOWNTOWN  CLEAR     56  34  43 NW8G18    29.79R

$$

THE INLAND EMPIRE

CITY           SKY/WX    TMP DP  RH WIND       PRES   REMARKS
CORONA         MOCLDY    51  50  97 CALM      29.80R
CHINO          CLOUDY    55  48  77 CALM      29.80R
ONTARIO        MOCLDY    55  44  66 NE5       29.79R
RIVERSIDE AP   CLOUDY    54  43  66 N3        29.80R
RIV CYN CREST    N/A     54  52  93 CALM        N/A
MORENO VALLEY    N/A     53  51  94 CALM      28.98
MARCH ARB      LGT RAIN  52  52 100 E1        29.79R
HORSETHIEF CYN   N/A     51  43  72 NW2       29.78S
PERRIS           N/A     52  51  95 S3        29.79S
MENIFEE          N/A     53  51  95 CALM      29.85F
HEMET EAST       N/A     51  44  75 CALM      29.78F
FRENCH VALLEY  CLOUDY    54  52  94 SW3       29.80R
TEMECULA         N/A     56  53  90 S9        29.77S

$$

SAN BERNARDINO AND RIVERSIDE COUNTY MOUNTAINS

CITY           SKY/WX    TMP DP  RH WIND       PRES   REMARKS
BIG BEAR AP    CLOUDY    30  28  93 W17G25    29.82R FOG     WCI  18
ANGELUS OAKS     N/A     38  33  82 CALM      29.70R
PINE COVE        N/A     36  35  97 NW2       29.72S

$$

SOUTHERN DESERT INCLUDING THE COACHELLA VALLEY

CITY           SKY/WX    TMP DP  RH WIND       PRES   REMARKS
PALM SPRINGS   CLEAR     52  30  43 VRB5      29.69S
THOUSAND PALMS   N/A     55  31  41 NW2       29.64S
PALM DESERT      N/A     56  36  47 CALM      29.99S
THERMAL        CLEAR     41  25  53 S7        29.68R
BLYTHE         CLEAR     54  18  24 SW7       29.70F
IMPERIAL AP    PTCLDY    63  44  50 W16G24    29.68R
EL CENTRO NAS  PTCLDY    64  43  46 W16G28    29.69R
YUMA AZ        MOCLDY   N/A N/A N/A N7        29.69R

$$

UPPER DESERT

CITY           SKY/WX    TMP DP  RH WIND       PRES   REMARKS
VICTORVILLE AP CLEAR     39  32  75 W18       29.83F WCI  30
HESPERIA         N/A     43  31  62 NW7       29.97R
PALMDALE       CLEAR     42  34  73 W18G25    29.86F
LANCASTER      CLEAR     45  29  53 W29G37    29.83R
EDWARDS AFB    CLEAR     46  32  57 W24G33    29.80F
DAGGETT        CLEAR     49  31  49 W24G35    29.79R
29 PALMS N     CLEAR     49  34  56 NW31G41   29.80F
NEEDLES        PTCLDY    53  12  19 S7        29.70S

$$

REGIONAL REPORTS

CITY           SKY/WX    TMP DP  RH WIND       PRES   REMARKS
SANTA BARBARA  CLEAR     58  28  32 N18       29.84F
SANDBERG       CLOUDY    34  30  85 NW36G49   29.83F FOG     WCI  19
MT. WILSON       N/A     34  19  55 MISG        N/A
LAS VEGAS NV   CLOUDY    51  19  28 N26G33    29.63S
PHOENIX AZ     PTCLDY    48  31  51 E8        29.71F
TIJUANA        LGT RAIN  59  52  77 W7        29.85F
ENSENADA NW      N/A     59  32  35 NE2       29.83F

$$

OFFSHORE ISLANDS

CITY           SKY/WX    TMP DP  RH WIND       PRES   REMARKS
CATALINA ARPT  MOCLDY    51  39  63 N17G28    29.81R
SAN NICOLAS IS CLEAR    N/A N/A N/A NW32G40   29.82F

$$

MARINE AND OFFSHORE BUOY REPORTS

STATION/POSITION SKY/WX   TEMP    WIND        PRES    SWELL
                          AIR SEA DIR/SP/G            HT/PER/DIR
                          (F)     (DEG/KT/KT) (MB)    (FT/S/D)
TANNER BANKS               60 63  320/ 29/ 37 1011.2F  10/320/ 9
S CLEMENTE BASIN           61 65  310/ 23/ 27 1009.5F   7/290/ 8
SAN NICOLAS IS.               62                N/A     8/290/17
SO. S. ROSA ISLA           57 61  330/ 27/ 33 1011.4F  11/10
W. S. BARBARA CH           55 62  340/ 23/ 29 1012.4F  11/310/10
S. MONICA BASIN            60 62  340/ 14/ 17 1009.2S   7/270/ 7
S PEDRO CHANNEL               64                N/A     3/270/17
DANA POINT                    64                N/A     3/270/15
CMP PENDLETON NS              64                N/A     2/240/15
OCEANSIDE OFFSHR              64                N/A     3/260/15
TORREY PINES OTR              64                N/A     3/270/13
LA JOLLA 1                 61 64  270/ 13/ 17 1009.6S
MISSION BAY BUOY              64                N/A     3/280/17
SAN DIEGO BAY                 64              1010.2F
POINT LOMA SOUTH              65                N/A     3/270/17

$$



USA.gov is the U.S. government's official web portal to all federal, state and local government web resources and services.